This demonstration page uses our WeatherBlox Daily Observations layout. Learn more.

36.17497, -115.13722

Hourly Observations for July 17, 2015

Temp ( °F °C ) Dew Point ( °F °C ) Humidity (%) Winds ( mph kmh ) Pressure ( in mb ) Visibility ( mi km ) Precip ( " mm )
12:53 am 00:53 Clear 89 31.7 29 -1.7 11 11 SSW 6 9 29.78 1009 10 16.0934 0 0
1:53 am 01:53 Clear 86 30 29 -1.7 13 13 ESE 3 6 29.78 1009 10 16.0934 0 0
2:53 am 02:53 Clear 84 28.9 32 0 15 15 Calm 29.78 1008 10 16.0934 0 0
3:53 am 03:53 Clear 84 28.9 33 0.6 16 16 SSW 5 7 29.77 1008 10 16.0934 0 0
4:53 am 04:53 Clear 79 26.1 34 1.1 20 20 NW 7 11 29.79 1009 10 16.0934 0 0
5:53 am 05:53 Sunny 76 24.4 35 1.7 23 23 NW 7 11 29.8 1009 10 16.0934 0 0
6:53 am 06:53 Sunny 79 26.1 35 1.7 20 20 N 5 7 29.82 1010 10 16.0934 0 0
7:53 am 07:53 Sunny 85 29.4 34 1.1 16 16 E 3 6 29.83 1010 10 16.0934 0 0
8:53 am 08:53 Sunny 88 31.1 33 0.6 14 14 Calm 29.84 1011 10 16.0934 0 0
9:53 am 09:53 Sunny 94 34.4 34 1.1 12 12 S 5 7 29.83 1010 10 16.0934 0 0
10:53 am 10:53 Sunny 99 37.2 35 1.7 11 11 S 15 24 29.81 1009 10 16.0934 0 0
11:53 am 11:53 Sunny 101 38.3 38 3.3 11 11 SSW 18 30 29.79 1009 10 16.0934 0 0
12:53 pm 12:53 Sunny 101 38.3 36 2.2 10 10 SW 10 17 29.77 1008 10 16.0934 0 0
1:53 pm 13:53 Sunny 102 38.9 38 3.3 11 11 SW 12 19 29.75 1007 10 16.0934 0 0
2:53 pm 14:53 Sunny 104 40 41 5 12 12 WSW 17 28 29.72 1007 10 16.0934 0 0
3:53 pm 15:53 Sunny 105 40.6 41 5 11 11 WSW 13 20 29.69 1005 10 16.0934 0 0
4:53 pm 16:53 Sunny 104 40 42 5.6 12 12 SW 14 22 29.67 1005 10 16.0934 0 0
5:53 pm 17:53 Sunny 102 38.9 42 5.6 13 13 SW 16 26 29.67 1005 10 16.0934 0 0
6:53 pm 18:53 Sunny 101 38.3 42 5.6 13 13 SW 17 28 29.66 1004 10 16.0934 0 0
7:53 pm 19:53 Sunny 99 37.2 46 7.8 16 16 SW 20 31 29.67 1005 10 16.0934 0 0
8:53 pm 20:53 Clear 96 35.6 49 9.4 20 20 SSW 12 19 29.69 1006 10 16.0934 0 0
9:53 pm 21:53 Clear 95 35 44 6.7 17 17 SW 16 26 29.72 1007 10 16.0934 0 0
10:53 pm 22:53 Clear 91 32.8 49 9.4 24 24 SSW 15 24 29.73 1007 10 16.0934 0 0
11:53 pm 23:53 Clear 91 32.8 44 6.7 20 20 S 9 15 29.76 1008 10 16.0934 0 0

Powered by AerisWeather